Flag for Australia Weather past 2 weeks in Geelong, Victoria, Australia

Now
46 °F

Cool.


Feels Like: 46 °F
Forecast: 40 / 61 °F
Wind: 2 mph from Northeast

Location: Geelong Airport Aws

Current Time: Sep 2, 2015 at 12:58:42 AM

Latest Report: Sep 2, 2015 at 12:00 AM


Visibility: N/A

Pressure: 29.92 "Hg

Humidity: 93%

Dew point: 44 °F

Location of GeelongLocation

Historic Weather in Geelong — Graph

°F

Geelong temperature yesterday

Maximum temperature yesterday: 57 °F (at 2:00 PM)
Minimum temperature yesterday: 36 °F (at 6:00 AM)
Average temperature yesterday: 48 °F

Past Weeks' High & Low Weather Summary

 TemperatureHumidityPressure
High65 °F (Aug 20, 3:00 PM)95% (Aug 19, 5:00 AM)30.35 "Hg (Aug 19, 5:00 AM)
Low34 °F (Aug 19, 6:00 AM)46% (Aug 20, 3:00 PM)29.86 "Hg (Aug 21, 6:00 PM)
Average50 °F79%30.18 "Hg
* Reported Aug 17 11:00 PM — Sep 1 11:00 PM, Geelong, Weather by CustomWeather, © 2015

Note: Actual official high and low records may vary slightly from our data, if they occured in-between our weather recording intervals... More about our weather records

Advertising

Geelong weather history for previous 24 hours

 ConditionsComfort  
Time TempWeatherWind HumidityBarometerVisibility
11:00 PM
Tue, Sep 1
44 °FQuite cool.No wind93%29.92 "HgN/A
9:00 PM44 °FQuite cool.1 mph93%29.94 "HgN/A
8:00 PM46 °FCool.No wind92%29.94 "HgN/A
6:00 PM53 °FCool.2 mph64%29.92 "HgN/A
5:00 PM55 °FCool.6 mph53%29.91 "HgN/A
3:00 PM56 °FRefreshingly cool.6 mph55%29.94 "HgN/A
2:00 PM57 °FRefreshingly cool.6 mph52%29.95 "HgN/A
12:00 PM55 °FCool.6 mph54%30.02 "HgN/A
11:00 AM53 °FCool.5 mph57%30.04 "HgN/A
9:00 AM48 °FCool.2 mph70%30.04 "HgN/A
8:00 AM40 °FQuite cool.5 mph92%30.05 "HgN/A
6:00 AM36 °FChilly.No wind93%30.02 "HgN/A
5:00 AM39 °FChilly.No wind90%30.03 "HgN/A
3:00 AM45 °FCool.No wind73%30.05 "HgN/A
2:00 AM47 °FCool.2 mph72%30.07 "HgN/A
12:00 AM48 °FCool.2 mph72%30.09 "HgN/A
Weather by CustomWeather, © 2015

See weather overviewHow to use our weather pages